Location: Krakow
(50.0830°N, 19.9170°E)
Time: 17:59:11
(UTC+01:00)

Vanguard 1 Rocket - Pass Details

Date: 17 December 2023
Orbit: 653 x 4219 km, 34.3° (Epoch: 29 February)

Event Time Altitude Azimuth Distance (km) Brightness Sun altitude
Rises 21:25:35 0° 163° (SSE) 7,489 - -53.1°
Reaches altitude 10° 21:37:57 10° 135° (SE) 7,184 - -54.7°
Maximum altitude 21:43:18 11° 122° (ESE) 7,247 - -55.4°
Drops below altitude 10° 21:48:47 10° 109° (ESE) 7,421 - -56.0°
Exits shadow 22:00:55 - 85° (E) 8,140 12.0 -57.4°
Sets 22:02:08 0° 83° (E) 8,234 12.1 -57.6°
